Regional Weather Roundup
Issued by NWS

Home | Current Version | Previous Version | Graphics & Text | Print | Product List | Glossary Off
Versions: 1 2 3 4 5 6 7 8 9 10 11 12 13 14 15 16 17 18 19 20 21 22 23 24 25 26 27 28 29 30 31 32 33 34 35 36 37 38 39 40 41 42 43 44 45 46 47 48 49 50

000
ASUS43 KMKX 242211
RWRWI

WISCONSIN REGIONAL WEATHER ROUNDUP
NATIONAL WEATHER SERVICE MILWAUKEE/SULLIVAN WI
500 PM CDT SUN SEP 24 2017

NOTE: "FAIR" INDICATES FEW OR NO CLOUDS BELOW 12,000 FEET WITH NO
SIGNIFICANT WEATHER AND/OR OBSTRUCTIONS TO VISIBILITY.

WIZ001-002-006>008-014>016-023>028-242300-
NORTHWEST WISCONSIN

CITY           SKY/WX    TMP DP  RH WIND       PRES   REMARKS
SUPERIOR ARPT  MOSUNNY   67  64  87 NE9       29.85F
ASHLAND        SUNNY     86  61  42 S8        29.88F HX  86
HAYWARD        SUNNY     83  63  50 S9        29.90F HX  84
SIREN          MOSUNNY   85  63  47 S12G17    29.87F HX  86
CUMBERLAND     SUNNY     81  61  50 S12       29.91F HX  81
RICE LAKE      SUNNY     85  61  44 S12G18    29.91F HX  85
CHETEK         SUNNY     84  66  54 MISG      29.91F HX  86
LADYSMITH      MOSUNNY   85  62  46 S9        29.95F HX  85
EAU CLAIRE     MOSUNNY   87  60  40 S15       29.90F HX  87
MENOMONIE      SUNNY     85  64  48 SE8       29.90F HX  86
NEW RICHMOND   CLOUDY    87  57  36 S14       29.87F HX  86
OSCEOLA        MOSUNNY  N/A N/A N/A S12G18    29.88F
$$

WIZ003>005-009-010-017-018-242300-
NORTH CENTRAL WISCONSIN

CITY           SKY/WX    TMP DP  RH WIND       PRES   REMARKS
MANITOWISH WTR NOT AVBL
ARBOR VITAE    SUNNY     83  60  45 S12G20    29.98S HX  83
WOODRUFF       SUNNY     83  60  45 S12G20    29.98S HX  83
RHINELANDER    SUNNY     85  59  41 SW10G22   30.00S HX  84
EAGLE RIVER    SUNNY     83  55  38 SW9       29.98F HX  82
LAND O LAKES   SUNNY     85  57  38 SW9       30.00S HX  84
PHILLIPS       CLOUDY    84  59  43 SW14      29.96S HX  83
TOMAHAWK       SUNNY     83  58  42 S5        29.98F HX  83
MEDFORD        SUNNY     84  58  41 S12G17    29.98S HX  83
MERRILL        SUNNY     86  61  42 SW8       29.98F HX  86
$$

WIZ029-030-035-036-043>047-242300-
CENTRAL WISCONSIN

CITY           SKY/WX    TMP DP  RH WIND       PRES   REMARKS
WAUSAU         PTSUNNY   86  59  39 S15       29.97S HX  85
MOSINEE        MOSUNNY   84  57  39 S9G17     29.99F HX  83
MARSHFIELD     SUNNY     85  57  38 S13       29.97F HX  84
STEVENS POINT  SUNNY     85  60  43 SE10      29.99S HX  85
WAUPACA        SUNNY     88  60  39 S8        29.99S HX  87
WAUTOMA        SUNNY     88  60  38 S7        29.98S HX  87
WISC RAPIDS    SUNNY     88  61  40 SW9       29.98F HX  88
CAMP DOUGLAS   SUNNY     88  60  38 S8G17     29.96F HX  88
$$

WIZ011>013-019>022-031-037>040-048>050-242300-
NORTHEAST WISCONSIN

CITY           SKY/WX    TMP DP  RH WIND       PRES   REMARKS
ANTIGO         SUNNY     83  63  49 SW12      30.02S HX  84
SHAWANO        SUNNY     89  61  38 S6        29.98S HX  89
OCONTO         MOSUNNY   88  66  47 SE9       29.98S HX  90
STURGEON BAY   SUNNY     81  65  58 S10       30.01S HX  83
GREEN BAY      SUNNY     88  65  46 SW7       29.99S HX  90
MANITOWOC      SUNNY     78  65  63 S10       30.02S HX  80
APPLETON       MOSUNNY   88  55  33 S13       29.99S HX  86
CLINTONVILLE   SUNNY     88  57  35 S9        29.99S HX  86
OSHKOSH        SUNNY     86  63  45 S9        29.99S HX  87
$$

WIZ032>034-041-042-053>061-242300-
SOUTHWEST WISCONSIN

CITY           SKY/WX    TMP DP  RH WIND       PRES   REMARKS
LA CROSSE      MOSUNNY   91  61  36 S15       29.91F HX  91
SPARTA         SUNNY     87  59  37 S9        29.95F HX  87
VIROQUA        SUNNY     86  61  42 S9        29.98S HX  86
BOSCOBEL       SUNNY     90  61  37 S6        29.94F HX  90
PRAIRIE DU CHI SUNNY     88  57  34 SE7       29.93S HX  87
PLATTEVILLE    SUNNY     87  61  41 S9        29.99F HX  87
$$

WIZ056-057-062-063-064-067-068-242300-
SOUTH CENTRAL WISCONSIN

CITY           SKY/WX    TMP DP  RH WIND       PRES   REMARKS
REEDSBURG      SUNNY     88  59  38 S12       29.97S HX  87
BARABOO/DELLS  SUNNY     87  54  31 SW10      29.98S HX  85
LONE ROCK      SUNNY     89  58  34 S12       29.96F HX  88
MINERAL POINT  SUNNY     88  55  33 S7        30.00F HX  86
MADISON        MOSUNNY   88  57  34 S12       29.98F HX  87
MIDDLETON      SUNNY     89  54  29 S12       30.00S HX  87
WATERTOWN      MOSUNNY   87  61  42 S10       30.00S HX  87
MONROE         SUNNY     86  55  35 S9        30.00S HX  84
JANESVILLE     MOSUNNY   91  54  27 S12       29.99S HX  89
$$

WIZ051-052-058>065-066-070>072-242300-
SOUTHEAST WISCONSIN

CITY           SKY/WX    TMP DP  RH WIND       PRES   REMARKS
MILWAUKEE      MOSUNNY   82  64  54 SE15      30.01S HX  83
WAUKESHA       NOT AVBL
MILWAUKEE/TIMM MOSUNNY   88  54  31 SE15      30.01S HX  86
RACINE         SUNNY     83  65  54 SE9       30.04R HX  85
BURLINGTON     SUNNY     88  60  38 S6        30.01S HX  88
KENOSHA        SUNNY     86  62  44 SE10      30.02S HX  86
FOND DU LAC    MOSUNNY   87  60  40 SW8       30.00S HX  87
SHEBOYGAN      SUNNY     83  66  56 S8        30.02S HX  85
WEST BEND        N/A     84  59  42 SE8       30.01S HX  84
JUNEAU         SUNNY     85  62  45 S9        30.02S HX  85
$$

LSZ147-162-242300-
LAKE SUPERIOR

STATION/POSITION TIME  TEMP    WIND        PRES    WAVE
                       AIR SEA DIR/SP/G            HT/PER
                 (UTC) (F)     (DEG/KT/KT) (MB)    (FT/S)
W MID LAKE BUOY  2150   65 58   70/  4/  4 1011.6F   0
DEVILS ISLAND    2200   67      80/  8/  9 1011.4F
SAXON HARBOR     2140   88     210/  7/ 12 1011.5S
$$

LMZ867-665-643>646-242300-
LAKE MICHIGAN

STATION/POSITION TIME  TEMP    WIND        PRES    WAVE
                       AIR SEA DIR/SP/G            HT/PER
                 (UTC) (F)     (DEG/KT/KT) (MB)    (FT/S)
S GREEN BAY BUOY 2130   80 71  210/  6/  8 1015.3F
N MID LAKE BUOY  2150   70 67  200/  6/  8 1016.8F   1/ 3
NORTHPORT PIER   2140   75     150/  7/ 11 1015.9F
KEWAUNEE LAKESHO 2148   67     180/  7/  9 1015.8F
SHEBOYGAN LAKESH 2200   72     160/  7/  8 1015.9F
PORT WASHINGTON  2130   80     190/  4/  8 1016.9S
ATWATER BUOY     2139   70 65  190/  8/  8 1016.6S
MILWAUKEE LAKESH 2150   70     160/ 11/ 12   N/A
S MID LAKE BUOY  2150   75 72  120/  2/  4 1016.8F   0
KENOSHA   LAKESH 2200   78     140/  8/ 13 1015.9
$$

TC  - TEMPERATURE IN CELSIUS
VSB - VISIBILITY IN STATUTE MILES
WCI - WIND CHILL INDEX
HX  - HEAT INDEX




USA.gov is the U.S. government's official web portal to all federal, state and local government web resources and services.